Starlink 30399

operational
NORAD ID: 57951 Int'l Des: 2023-148 Owner: SPXS Country: US Constellation: starlink
LEOCIRCULAR

Über Starlink 30399

Beschreibung wird geladen...

Live-Position

3D-Globus wird geladen...

Nächste Überflüge

Höhenverlauf

Altitude vs Time

uPlot chart will show altitude changes over time

Zweizeiliger Elementsatz

1 57951U 23148S 25304.17981649 .00002093 00000-0 82865-4 0 9991
2 57951 53.1601 265.8332 0001147 106.5009 253.6118 15.30158559118590
Epoch: 31. Okt. 2025 • Age: 35 hours

Aktueller Status

Höhe 475.0 km
Geschwindigkeit 7.63 km/s
Subsatellitenpunkt 10.36°N, 157.08°E
Startdatum 25. Sept. 2023
Alter 2.1 years
Typ internet

Technische Details

Klassifizierung Payload
Masse 730.00 kg
Trockenmasse 700.00 kg
Gesamtmasse 730.00 kg
Länge 0.30 m
Durchmesser 4.10 m
Spannweite 29.00 m
Form Box + pan
Hersteller SPXS
Bus-Typ Starlink V2M
Phasenstatus In Orbit
Besitzer/Staat SPXS/US

Große Konstellationen

Loading constellations...